RYR99WT LPPD-GCLP

Flight info

Callsign RYR99WT
Flight time N/A
Altitude 35000
Route AMIXI DCT ETROX DCT 35N020W DCT IRKID/N0439F350 DCT ORTIS
Aircraft B738/M-SDE2E3FGHIRWXY/LB1

Departure

Time N/A
Airport João Paulo II Airport (LPPD)

Arrival

Time 2026-04-28 11:55
Airport Gran Canaria Airport (GCLP)
Time Latitude Longitude Altitude Speed Heading
2026-04-28 11:38 28.85351 -15.90910 21254 ft 459 kts 153°
2026-04-28 11:38 28.82560 -15.89170 20667 ft 453 kts 153°
2026-04-28 11:38 28.80147 -15.87667 20140 ft 449 kts 153°
2026-04-28 11:38 28.77415 -15.85966 19533 ft 445 kts 153°
2026-04-28 11:39 28.74713 -15.84284 18920 ft 441 kts 153°
2026-04-28 11:39 28.72027 -15.82614 18323 ft 436 kts 153°
2026-04-28 11:39 28.69373 -15.80964 17713 ft 433 kts 153°
2026-04-28 11:39 28.66744 -15.79330 17108 ft 429 kts 153°
2026-04-28 11:40 28.64138 -15.77712 16537 ft 424 kts 153°
2026-04-28 11:40 28.61563 -15.76114 15959 ft 420 kts 153°
2026-04-28 11:40 28.59008 -15.74530 15386 ft 416 kts 152°
2026-04-28 11:40 28.56481 -15.72955 14822 ft 412 kts 152°
2026-04-28 11:41 28.53982 -15.71401 14333 ft 406 kts 152°
2026-04-28 11:41 28.51524 -15.69877 14201 ft 401 kts 152°
2026-04-28 11:41 28.49103 -15.68379 14040 ft 402 kts 152°
2026-04-28 11:41 28.46682 -15.66884 13516 ft 400 kts 152°
2026-04-28 11:42 28.44204 -15.65354 12990 ft 398 kts 152°
2026-04-28 11:42 28.41813 -15.63879 12468 ft 394 kts 152°
2026-04-28 11:42 28.39381 -15.62379 11936 ft 390 kts 152°
2026-04-28 11:42 28.37002 -15.60913 11363 ft 387 kts 152°
2026-04-28 11:43 28.34642 -15.59459 10781 ft 385 kts 152°
2026-04-28 11:43 28.32291 -15.58012 10207 ft 383 kts 151°
2026-04-28 11:43 28.29955 -15.56572 9640 ft 381 kts 151°
2026-04-28 11:43 28.27625 -15.55132 9074 ft 379 kts 150°
2026-04-28 11:44 28.25320 -15.53711 8536 ft 377 kts 150°
2026-04-28 11:44 28.23028 -15.52300 8038 ft 373 kts 150°
2026-04-28 11:44 28.20981 -15.51043 7560 ft 371 kts 150°
2026-04-28 11:44 28.18749 -15.49673 7067 ft 367 kts 150°
2026-04-28 11:45 28.16514 -15.48301 6570 ft 364 kts 150°
2026-04-28 11:45 28.14284 -15.46971 6235 ft 359 kts 153°
2026-04-28 11:45 28.11888 -15.46222 6127 ft 361 kts 173°
2026-04-28 11:45 28.09374 -15.46360 6075 ft 365 kts 187°
2026-04-28 11:46 28.06847 -15.46729 6021 ft 367 kts 186°
2026-04-28 11:46 28.04305 -15.47032 5973 ft 366 kts 186°
2026-04-28 11:46 28.01773 -15.47350 5923 ft 367 kts 186°
2026-04-28 11:46 27.99238 -15.47665 5872 ft 366 kts 186°
2026-04-28 11:47 27.96706 -15.47981 5824 ft 366 kts 186°
2026-04-28 11:47 27.94170 -15.48299 5772 ft 366 kts 186°
2026-04-28 11:47 27.91657 -15.48616 5553 ft 361 kts 186°
2026-04-28 11:47 27.89186 -15.48995 5158 ft 354 kts 191°
2026-04-28 11:48 27.86853 -15.49685 4350 ft 341 kts 197°
2026-04-28 11:48 27.84630 -15.50510 3546 ft 332 kts 199°
2026-04-28 11:48 27.82473 -15.51339 2943 ft 319 kts 198°
2026-04-28 11:48 27.80452 -15.52115 2654 ft 296 kts 198°
2026-04-28 11:49 27.78545 -15.52689 2493 ft 272 kts 185°
2026-04-28 11:49 27.76789 -15.52426 2436 ft 241 kts 155°
2026-04-28 11:49 27.75573 -15.51338 2456 ft 212 kts 121°
2026-04-28 11:49 27.75173 -15.49891 2468 ft 183 kts 87°
2026-04-28 11:50 27.75363 -15.48530 2478 ft 171 kts 68°
2026-04-28 11:50 27.75864 -15.47369 2485 ft 164 kts 58°
2026-04-28 11:50 27.76462 -15.46293 2457 ft 160 kts 43°
2026-04-28 11:50 27.77098 -15.45780 2470 ft 157 kts 30°
2026-04-28 11:51 27.77862 -15.45300 2523 ft 158 kts 27°
2026-04-28 11:51 27.78872 -15.44771 2527 ft 161 kts 22°
2026-04-28 11:51 27.79909 -15.44301 2554 ft 159 kts 21°
2026-04-28 11:51 27.80906 -15.43859 2453 ft 150 kts 21°
2026-04-28 11:52 27.81849 -15.43441 2257 ft 141 kts 21°
2026-04-28 11:52 27.82745 -15.43045 2064 ft 137 kts 21°
2026-04-28 11:52 27.83611 -15.42662 1908 ft 130 kts 21°
2026-04-28 11:52 27.84438 -15.42297 1735 ft 126 kts 20°
2026-04-28 11:53 27.85263 -15.41932 1562 ft 130 kts 20°
2026-04-28 11:53 27.86143 -15.41543 1394 ft 140 kts 20°
2026-04-28 11:53 27.87055 -15.41139 1192 ft 141 kts 20°
2026-04-28 11:53 27.87957 -15.40738 976 ft 139 kts 20°
2026-04-28 11:54 27.88854 -15.40327 737 ft 137 kts 19°
2026-04-28 11:54 27.89750 -15.39948 534 ft 137 kts 19°
2026-04-28 11:54 27.90628 -15.39556 363 ft 134 kts 19°
2026-04-28 11:54 27.91479 -15.39186 186 ft 131 kts 19°
2026-04-28 11:55 27.92307 -15.38821 80 ft 122 kts 19°
2026-04-28 11:55 27.92956 -15.38534 78 ft 76 kts 21°
2026-04-28 11:55 27.93359 -15.38370 77 ft 40 kts
2026-04-28 11:55 27.93584 -15.38381 77 ft 28 kts 351°
2026-04-28 11:56 27.93766 -15.38410 77 ft 25 kts 351°
2026-04-28 11:56 27.93931 -15.38440 77 ft 23 kts 351°
2026-04-28 11:56 27.94047 -15.38513 78 ft 18 kts 298°
2026-04-28 11:56 27.94051 -15.38633 78 ft 17 kts 212°
2026-04-28 11:57 27.93964 -15.38677 78 ft 8 kts 231°
2026-04-28 11:57 27.93972 -15.38736 78 ft 6 kts 292°
2026-04-28 11:57 27.93978 -15.38755 78 ft 1 kts 291°
2026-04-28 11:57 27.93980 -15.38760 78 ft 1 kts 289°
2026-04-28 11:58 27.93981 -15.38763 78 ft 1 kts 290°